Jordan, MT

12:21 AM MDT on July 30, 2016 (GMT -0600)
Jordan

Weather History for KJDN - January, 2014

Change the Weather History Date:

Sunday, January 5, 2014

  Actual Average Record
Temperature  
Mean Temperature -8 °F 16 °F  
Max Temperature 2 °F 29 °F 65 °F (2012)
Min Temperature -19 °F 4 °F -32 °F (1913)
Degree Days  
Heating Degree Days 73 49  
Month to date heating degree days 248 245  
Since 1 July heating degree days 3835 3695  
Cooling Degree Days 0 0  
Month to date cooling degree days 0 0  
Year to date cooling degree days 0 0  
Moisture  
Dew Point -21 °F    
Average Humidity 58    
Maximum Humidity 69    
Minimum Humidity 47    
Precipitation  
Precipitation 0.00 in 0.01 in 0.30 in (1980)
Month to date precipitation 0.05 0.05  
Year to date precipitation 0.05 0.05  
Snow  
Snow 0.00 in - - ()
Month to date snowfall 0.0  
Since 1 July snowfall 0.0  
Snow Depth 0.00 in    
Sea Level Pressure  
Sea Level Pressure 30.79 in    
Wind  
Wind Speed 16 mph (NW)    
Max Wind Speed 35 mph    
Max Gust Speed 41 mph    
T = Trace of Precipitation, MM = Missing Value Source: NWS Daily Summary

Daily Weather History Graph

Daily Weather History Graph

Search for Another Location

Airport or City:

Trip Planner

Search our weather history database for the weather conditions in past years. The results will help you decide how hot, cold, wet, or windy it might be!

Date:

Astronomy

Jan. 05, 2014 Rise Set
Actual Time 7:54 AM MST 4:32 PM MST
Civil Twilight 7:19 AM MST 5:07 PM MST
Nautical Twilight 6:40 AM MST 5:46 PM MST
Astronomical Twilight 6:03 AM MST 6:23 PM MST
Moon 10:15 AM MST (1/5) 10:27 PM MST (1/5)
Length of Visible Light 9h 48m
Length of Day
8h 37m
Waxing Crescent, 25% of the Moon is Illuminated
Jan 5
Waxing Crescent
Jan 7
First Quarter
Jan 15
Full
Jan 23
Last Quarter
Jan 30
New

Hourly Weather History & Observations

Time (MST) Temp. Windchill Dew Point Humidity Pressure Visibility Wind Dir Wind Speed Gust Speed Precip Events Conditions
12:48 AM -0.0 °F -22.9 °F -11.0 °F 60% 30.54 in - NNW 21.9 mph 33.4 mph N/A   Unknown
1:48 AM -0.0 °F -25.1 °F -11.9 °F 57% 30.56 in - NW 27.6 mph - N/A   Unknown
2:48 AM 1.0 °F -21.9 °F -7.1 °F 69% 30.59 in - NW 23.0 mph - N/A   Unknown
3:48 AM -0.9 °F -26.7 °F -11.0 °F 62% 30.62 in - NW 28.8 mph 36.8 mph N/A   Unknown
4:48 AM -4.0 °F -29.1 °F -14.1 °F 62% 30.68 in - NNW 24.2 mph 33.4 mph N/A   Unknown
5:48 AM -8.0 °F -34.9 °F -18.9 °F 59% 30.75 in - North 25.3 mph 33.4 mph N/A   Unknown
6:48 AM -11.9 °F -40.2 °F -23.1 °F 58% 30.81 in - North 25.3 mph 33.4 mph N/A   Unknown
7:48 AM -13.0 °F -36.0 °F -27.9 °F 47% 30.87 in - NNW 15.0 mph - N/A   Unknown
8:48 AM -14.1 °F -33.7 °F -27.0 °F 52% 30.91 in - NW 10.4 mph - N/A   Unknown
9:48 AM -13.0 °F -38.8 °F -27.0 °F 50% 30.92 in - NW 19.6 mph - N/A   Unknown
10:48 AM -11.0 °F -39.0 °F -25.1 °F 50% 30.93 in - NW 25.3 mph 32.2 mph N/A   Unknown
11:48 AM -9.9 °F -34.8 °F -24.0 °F 50% 30.92 in - NW 19.6 mph - N/A   Unknown
12:48 PM -7.1 °F -33.7 °F -22.0 °F 48% 30.89 in - NW 25.3 mph - N/A   Unknown
1:48 PM -6.0 °F -31.7 °F -20.9 °F 49% 30.87 in - NW 24.2 mph - N/A   Unknown
2:48 PM -5.1 °F -28.4 °F -20.0 °F 49% 30.84 in - NW 19.6 mph - N/A   Unknown
3:48 PM -6.0 °F -22.6 °F -20.0 °F 51% 30.86 in - NW 9.2 mph - N/A   Unknown
4:48 PM -9.0 °F -26.4 °F -20.9 °F 56% 30.86 in - NW 9.2 mph - N/A   Unknown
5:48 PM -11.0 °F -26.2 °F -22.0 °F 58% 30.84 in - NW 6.9 mph - N/A   Unknown
6:48 PM -15.0 °F -27.4 °F -24.0 °F 64% 30.83 in - WNW 4.6 mph - N/A   Unknown
7:48 PM -13.0 °F -25.1 °F -23.1 °F 61% 30.81 in - WNW 4.6 mph - N/A   Unknown
8:48 PM -16.1 °F -26.2 °F -25.1 °F 64% 30.79 in - NW 3.5 mph - N/A   Unknown
9:48 PM -18.0 °F -28.5 °F -27.0 °F 64% 30.78 in - West 3.5 mph - N/A   Unknown
10:48 PM -17.0 °F - -27.0 °F 60% 30.74 in - Calm Calm - N/A   Unknown
11:48 PM -17.0 °F - -27.0 °F 60% 30.72 in - Calm Calm - N/A   Unknown